Change the Weather History Date:

Sunday, December 23, 2012

  Actual Average Record
Temperature  
Mean Temperature 21 °F 20 °F  
Max Temperature 27 °F 30 °F 48 °F (2004)
Min Temperature 15 °F 11 °F -9 °F (2008)
Degree Days  
Heating Degree Days 44 45  
Month to date heating degree days 767 941  
Since 1 July heating degree days 2461 2769  
Cooling Degree Days 0 0  
Month to date cooling degree days 0 0  
Year to date cooling degree days 408 265  
Moisture  
Dew Point 17 °F    
Average Humidity 80    
Maximum Humidity 92    
Minimum Humidity 67    
Precipitation  
Precipitation 0.06 in 0.09 in 0.51 in (2006)
Month to date precipitation 3.57 2.06  
Year to date precipitation 22.81 35.42  
Sea Level Pressure  
Sea Level Pressure 29.76 in    
Wind  
Wind Speed 5 mph (NNW)    
Max Wind Speed 17 mph    
Max Gust Speed 28 mph    
Visibility 5 miles    
Events Snow    
T = Trace of Precipitation, MM = Missing Value Source: NWS Daily Summary

Daily Weather History Graph

Daily Weather History Graph

Search for Another Location

Airport or City:

Trip Planner

Search our weather history database for the weather conditions in past years. The results will help you decide how hot, cold, wet, or windy it might be!

Date:

Astronomy

Dec. 23, 2012 Rise Set
Actual Time 7:25 AM EST 4:14 PM EST
Civil Twilight 6:51 AM EST 4:48 PM EST
Nautical Twilight 6:14 AM EST 5:25 PM EST
Astronomical Twilight 5:39 AM EST 6:00 PM EST
Moon 1:08 PM EST (12/23) 2:59 AM EST (12/23)
Length of Visible Light 9h 56m
Length of Day
8h 49m
Waxing Gibbous, 81% of the Moon is Illuminated
Dec 23
Waxing Gibbous
Dec 28
Full
Jan 4
Last Quarter
Jan 11
New
Jan 18
First Quarter

Hourly Weather History & Observations

Time (EST) Temp. Windchill Dew Point Humidity Pressure Visibility Wind Dir Wind Speed Gust Speed Precip Events Conditions
12:07 AM 19.4 °F 12.8 °F 12.2 °F 74% 29.65 in 3.0 mi Variable 4.6 mph 17.3 mph 0.00 in Snow Light Snow
12:23 AM 19.4 °F 8.6 °F 12.2 °F 74% 29.66 in 2.5 mi WNW 9.2 mph 18.4 mph 0.00 in Snow Light Snow
12:54 AM 19.9 °F 6.7 °F 10.9 °F 68% 29.71 in 3.0 mi NW 13.8 mph 27.6 mph 0.00 in Snow Light Snow
1:16 AM 19.4 °F 8.6 °F 10.4 °F 68% 29.69 in 2.5 mi WNW 9.2 mph 20.7 mph 0.00 in Snow Light Snow
1:41 AM 19.4 °F 7.2 °F 10.4 °F 68% 29.69 in 3.0 mi NW 11.5 mph 16.1 mph 0.00 in Snow Light Snow
1:54 AM 19.9 °F 8.6 °F 10.0 °F 65% 29.74 in 4.0 mi WNW 10.4 mph - 0.00 in Snow Light Snow
2:54 AM 19.0 °F 6.8 °F 10.0 °F 68% 29.77 in 4.0 mi WNW 11.5 mph 17.3 mph 0.00 in Snow Light Snow
3:54 AM 19.0 °F 8.2 °F 10.0 °F 68% 29.77 in 8.0 mi WNW 9.2 mph 18.4 mph 0.00 in Snow Light Snow
4:01 AM 19.4 °F 10.4 °F 10.4 °F 68% 29.73 in 8.0 mi NW 6.9 mph - 0.00 in Snow Light Snow
4:28 AM 17.6 °F 5.7 °F 8.6 °F 68% 29.74 in 9.0 mi NW 10.4 mph - 0.00 in   Overcast
4:54 AM 18.0 °F 11.1 °F 8.1 °F 65% 29.78 in 10.0 mi NNW 4.6 mph - 0.00 in   Overcast
5:54 AM 17.1 °F 6.6 °F 9.0 °F 71% 29.81 in 9.0 mi NNW 8.1 mph - 0.00 in Snow Light Snow
6:47 AM 15.8 °F 6.1 °F 8.6 °F 73% 29.77 in 10.0 mi NNE 6.9 mph - 0.00 in   Mostly Cloudy
6:54 AM 15.1 °F 6.4 °F 10.0 °F 80% 29.81 in 10.0 mi North 5.8 mph - 0.00 in   Mostly Cloudy
7:54 AM 16.0 °F 10.4 °F 10.0 °F 77% 29.82 in 10.0 mi NNE 3.5 mph - N/A   Overcast
8:54 AM 17.1 °F 11.7 °F 10.0 °F 74% 29.82 in 10.0 mi NE 3.5 mph - N/A   Overcast
9:54 AM 18.0 °F - 10.9 °F 74% 29.82 in 10.0 mi Calm Calm - N/A   Overcast
10:54 AM 19.9 °F - 12.9 °F 74% 29.81 in 10.0 mi Calm Calm - N/A   Overcast
11:54 AM 24.1 °F 18.2 °F 15.1 °F 69% 29.80 in 7.0 mi Variable 4.6 mph - 0.00 in Snow Light Snow
12:54 PM 25.0 °F 19.3 °F 15.1 °F 66% 29.78 in 10.0 mi WSW 4.6 mph - 0.00 in   Overcast
1:54 PM 26.1 °F 21.9 °F 17.1 °F 69% 29.77 in 9.0 mi Variable 3.5 mph - 0.00 in Snow Light Snow
2:54 PM 26.1 °F 20.5 °F 18.0 °F 71% 29.75 in 10.0 mi SSW 4.6 mph - 0.00 in   Overcast
3:54 PM 26.1 °F 19.4 °F 19.0 °F 75% 29.76 in 4.0 mi SSW 5.8 mph - 0.00 in Snow Light Snow
4:23 PM 26.6 °F - 21.2 °F 80% 29.72 in 2.5 mi Calm Calm - 0.00 in Snow Light Snow
4:40 PM 24.8 °F - 21.2 °F 86% 29.72 in 3.0 mi Calm Calm - 0.00 in Snow Light Snow
4:51 PM 24.8 °F - 21.2 °F 86% 29.72 in 3.0 mi Calm Calm - 0.00 in Snow Light Snow
4:54 PM 25.0 °F - 21.0 °F 85% 29.76 in 3.0 mi Calm Calm - 0.00 in Snow Light Snow
5:04 PM 24.8 °F - 21.2 °F 86% 29.72 in 2.5 mi Calm Calm - 0.00 in Snow Light Snow
5:40 PM 24.8 °F - 23.0 °F 93% 29.72 in 4.0 mi Calm Calm - 0.00 in Snow Light Snow
5:54 PM 25.0 °F - 23.0 °F 92% 29.76 in 6.0 mi Calm Calm - 0.00 in Snow Light Snow
6:54 PM 26.1 °F - 23.0 °F 88% 29.76 in 1.8 mi Calm Calm - 0.01 in Snow Light Snow
7:02 PM 26.6 °F - 23.0 °F 86% 29.72 in 1.2 mi Calm Calm - 0.00 in Snow Light Snow
7:46 PM 26.6 °F - 24.8 °F 93% 29.72 in 1.0 mi Calm Calm - 0.01 in Snow Light Snow
7:54 PM 26.1 °F - 24.1 °F 92% 29.76 in 1.0 mi Calm Calm - 0.02 in Snow Light Snow
8:25 PM 26.6 °F 21.2 °F 24.8 °F 93% 29.73 in 1.2 mi North 4.6 mph - 0.01 in Snow Light Snow
8:49 PM 24.8 °F 14.6 °F 23.0 °F 93% 29.74 in 2.5 mi North 10.4 mph - 0.02 in Snow Light Snow
8:54 PM 25.0 °F 17.1 °F 21.9 °F 88% 29.79 in 2.5 mi North 6.9 mph - 0.02 in Snow Light Snow
9:01 PM 24.8 °F 19.1 °F 23.0 °F 93% 29.75 in 1.2 mi North 4.6 mph - 0.00 in Snow Light Snow
9:05 PM 24.8 °F 19.1 °F 23.0 °F 93% 29.76 in 0.8 mi NNW 4.6 mph - 0.00 in Snow Light Snow
9:13 PM 26.6 °F 22.6 °F 24.8 °F 93% 29.77 in 0.8 mi North 3.5 mph - 0.01 in Snow Light Snow
9:21 PM 26.6 °F 20.0 °F 24.8 °F 93% 29.77 in 1.2 mi North 5.8 mph - 0.01 in Snow Light Snow
9:25 PM 26.6 °F 19.1 °F 24.8 °F 93% 29.77 in 3.0 mi North 6.9 mph - 0.01 in Snow Light Snow
9:32 PM 26.6 °F 20.0 °F 23.0 °F 86% 29.77 in 6.0 mi NNE 5.8 mph - 0.01 in Snow Light Snow
9:54 PM 24.1 °F 13.1 °F 19.9 °F 84% 29.83 in 8.0 mi NNW 11.5 mph - 0.01 in   Overcast
10:20 PM 23.0 °F 13.1 °F 19.4 °F 86% 29.80 in 2.0 mi North 9.2 mph - 0.00 in Snow Light Snow
10:35 PM 21.2 °F 10.1 °F 17.6 °F 86% 29.81 in 6.0 mi NNW 10.4 mph - 0.00 in Snow Light Snow
10:54 PM 21.9 °F 11.7 °F 18.0 °F 85% 29.86 in 5.0 mi NNW 9.2 mph - 0.00 in Snow Light Snow
11:54 PM 21.0 °F 11.4 °F 17.1 °F 85% 29.87 in 3.0 mi North 8.1 mph - 0.00 in Snow Light Snow